Regional Weather Roundup
Issued by NWS

Home | Current Version | Previous Version | Graphics & Text | Print | Product List | Glossary On
Versions: 1 2 3 4 5 6 7 8 9 10 11 12 13 14 15 16 17 18 19 20 21 22 23 24 25 26 27 28 29 30 31 32 33 34 35 36 37 38 39 40 41 42 43 44 45 46 47 48 49 50
000
ASUS43 KMPX 280801
RWRMN
WEATHER ROUNDUP FOR MINNESOTA
NATIONAL WEATHER SERVICE TWIN CITIES/CHANHASSEN MN
300 AM CDT THU AUG 28 2014


NOTE: "FAIR" INDICATES FEW OR NO CLOUDS BELOW 12,000 FEET WITH NO
SIGNIFICANT WEATHER AND/OR OBSTRUCTIONS TO VISIBILITY. N/A MEANS
CURRENT SKY AND/OR WEATHER CONDITIONS ARE NOT AVAILABLE.

MNZ060>063-068>070-280900-
   Twin Cities Metro

CITY           SKY/WX    TMP DP  RH WIND       PRES   REMARKS
TWIN CITIES    PTCLDY    63  57  81 E8        30.11F
ST PAUL        CLEAR     63  56  78 E3        30.13F
CRYSTAL        CLEAR     63  55  75 SE3       30.11F
BLAINE         PTCLDY    63  57  82 SE3       30.12F
LAKEVILLE      CLEAR     55  54  94 CALM      30.11F
EDEN PRAIRIE   CLEAR     63  59  87 E7        30.10F
SOUTH ST PAUL  CLEAR     63  55  77 CALM      30.12F
LAKE ELMO      FAIR      61  55  82 E5        30.13F
$$
MNZ001>005-007-008-013>017-022>024-027-028-280900-
   Northwest Minnesota

CITY           SKY/WX    TMP DP  RH WIND       PRES   REMARKS
BEMIDJI        FOG       50  49  96 CALM      30.09S VSB 1
HALLOCK        CLEAR     55  54  94 SE7       30.01F
ROSEAU         CLEAR     54  48  82 S5        30.05F
WARROAD        CLEAR     54  48  82 S3        30.06F
THIEF RVR FALL CLEAR     55  54  94 SE7       30.05S
CROOKSTON      CLEAR     57  55  94 S9        30.04S
FOSSTON        CLEAR     57  54  88 SE7       30.07S
DETROIT LAKES  PTCLDY    61  57  88 SE7       30.08F
MOORHEAD       CLOUDY    64  64 100 SE7       30.04S
PARK RAPIDS    CLEAR     56  54  93 S6        30.09F
MAHNOMEN       PTSUNNY   58  56  94 SE5       30.06F
$$
MNZ006-009>011-018-025>026-280900-
   North Central Minnesota

CITY           SKY/WX    TMP DP  RH WIND       PRES   REMARKS
BAUDETTE       CLEAR     52  49  89 SE3       30.07F
FLAG ISLAND    CLEAR     64  59  82 S12       30.04F
INTL FALLS     CLEAR     46  46 100 SE3       30.10S
WASKISH        CLEAR     52  52 100 CALM      30.08F
BIG FORK         N/A     46  45  93 CALM      30.11F FOG
LONGVILLE      CLEAR     48  48 100 CALM      30.10S
GRAND RAPIDS   CLEAR     48  46  93 CALM      30.11F
CRANE LAKE     CLEAR     43  41  93 CALM      30.13F
ORR            CLEAR     50  46  87 CALM      30.10S
COOK           CLEAR     43  43 100 CALM      30.13S
WALKER         FAIR      54  54  99 S5        30.10S
$$
MNZ012-019>021-037-280900-
   Northeast Minnesota

CITY           SKY/WX    TMP DP  RH WIND       PRES   REMARKS
DULUTH         PTCLDY    56  52  86 CALM      30.13F
ELY            CLEAR     46  45  93 CALM      30.13F
HIBBING        FOG       46  44  93 CALM      30.13S VSB 3/4
EVELETH        FOG       43  41  93 CALM      30.14F VSB 1/4
DULUTH HARBOR  PTCLDY    61  55  82 CALM      30.14S
TWO HARBORS    MOCLDY    52  46  82 CALM      30.12F
SILVER BAY     CLEAR     46  46 100 CALM      30.12F
GRAND MARAIS     N/A     55  51  86 CALM      30.14F
G MARAIS ARPRT MOCLDY    46  43  87 CALM      30.17S
$$
MNZ029>031-032-039>041-046>048-054>057-064-280900-
   West Central Minnesota

CITY           SKY/WX    TMP DP  RH WIND       PRES   REMARKS
FERGUS FALLS   CLOUDY    64  57  77 SE7       30.05F
WHEATON        CLEAR     59  55  88 SE7       30.05F
MORRIS         PTCLDY    63  59  88 SE7       30.05F
ALEXANDRIA     CLOUDY    63  57  81 SE9       30.09F
ELBOW LAKE     CLOUDY    63  59  87 SE9       30.06S
WADENA         CLEAR     57  55  94 SE3       30.09S
GLENWOOD       CLEAR     63  57  82 SE8       30.09F
APPLETON       CLOUDY    63  57  82 SE5       30.05F
BENSON         PTCLDY    63  59  88 S5        30.07F
ORTONVILLE     CLOUDY    64  57  77 SE7       30.04F
MADISON        MOCLDY    66  61  82 SE6       30.04F
WILLMAR        MOCLDY    63  57  82 E6        30.09F
$$
MNZ033>034-036-042>043-049>051-058-059-280900-
   Central Minnesota

CITY           SKY/WX    TMP DP  RH WIND       PRES   REMARKS
ST CLOUD       PTCLDY    61  55  81 E6        30.11F
SAUK CENTRE    CLOUDY    60  57  91 SE6       30.09F
PAYNESVILLE    CLOUDY    61  56  85 E5        30.10F
AITKIN         HAZE      52  46  82 CALM      30.10F VSB 3/4
PINE RIVER     CLOUDY    54  54 100 CALM      30.13S
BRAINERD       CLOUDY    59  56  89 CALM      30.11F
STAPLES        PTCLDY    57  55  94 SE3       30.10F
LONG PRAIRIE   MOCLDY    59  55  88 E6        30.10F
LITTLE FALLS   PTCLDY    59  54  82 SE6       30.11S
LITCHFIELD     CLOUDY    63  63 100 CALM      30.10F
BUFFALO        CLEAR     62  56  82 E5        30.12F
MAPLE LAKE     CLEAR     63  59  87 E3        30.11F
$$
MNZ037-044-045-052-053-280900-
   East Central Minnesota

CITY           SKY/WX    TMP DP  RH WIND       PRES   REMARKS
PRINCETON      CLOUDY    63  57  82 SE2       30.12F
MORA           CLOUDY    55  55 100 CALM      30.15R
CAMBRIDGE      PTCLDY    64  54  68 CALM      30.11S
RUSH CITY      CLOUDY    60  56  88 CALM      30.13S
MOOSE LAKE     FOG       48  46  93 CALM      30.12S VSB 3/4
HINCKLEY       CLOUDY    55  55 100 CALM      30.14S
CLOQUET        CLEAR     52  48  87 CALM      30.13F
MCGREGOR       CLEAR     48  46  93 CALM      30.13S
$$
MNZ071>073-080-081-089-090-097-098-280900-
   Southwest Minnesota

CITY           SKY/WX    TMP DP  RH WIND       PRES   REMARKS
MONTEVIDEO     PTCLDY    61  61 100 S6        30.06F
GRANITE FALLS  PTCLDY    61  58  89 E5        30.07F
CANBY          CLOUDY    64  61  90 SE6       30.06F
MARSHALL       CLOUDY    64  57  77 SE7       30.05S
REDWOOD FALLS  PTCLDY    63  59  87 SE8       30.07F
OLIVIA         PTCLDY    61  55  82 SE5       30.07F
PIPESTONE        N/A     66  63  88 SE8       30.06S
WINDOM         MOCLDY    64  59  82 SE7       30.07F
WORTHINGTON    CLOUDY    64  63  94 SE6       30.08F
JACKSON        CLOUDY    63  59  88 SE6       30.09F
TRACY          CLOUDY    65  61  86 S6        30.07F
SLAYTON        CLOUDY    64  62  93 CALM      30.07F
$$
MNZ065>067-074>077-082>085-091>093-280900-
   South Central Minnesota

CITY           SKY/WX    TMP DP  RH WIND       PRES   REMARKS
MANKATO        CLEAR     63  55  77 SE8       30.09F
NEW ULM        CLEAR     61  61 100 SE5       30.08F
ST JAMES       PTCLDY    63  61  94 SE5       30.09F
FAIRMONT       MOCLDY    61  55  82 SE7       30.08F
GLENCOE        MOCLDY    61  56  85 E5        30.09F
FARIBAULT      CLEAR     59  54  82 CALM      30.11F
OWATONNA       CLEAR     61  55  82 SE5       30.11F
WASECA         PTCLDY    59  54  82 E6        30.11F
ALBERT LEA     PTCLDY    63  57  82 SE5       30.10F
$$
MNZ078>079-086>088-094>096-280900-
   Southeast Minnesota

CITY           SKY/WX    TMP DP  RH WIND       PRES   REMARKS
ROCHESTER      CLEAR     57  55  93 SE3       30.13F
RED WING       CLEAR     57  55  94 E3        30.11F
STANTON        CLEAR     57  55  92 CALM      30.10F
DODGE CENTER   CLEAR     57  55  94 SE5       30.12F
WINONA         CLOUDY    61  59  94 CALM      30.13F
AUSTIN         CLEAR     57  55  94 E3        30.10F
PRESTON        CLEAR     58  58 100 CALM      30.13F
$$
ABBREVIATIONS USED IN REMARKS
   TC - TEMPERATURES IN CELSIUS
  WCI - WIND CHILL INDEX
   HX - HEAT INDEX
  VSB - VISIBILITY
$$


USA.gov is the U.S. government's official web portal to all federal, state and local government web resources and services.